Weather History for KMLC - August, 2013

Change the Weather History Date:

Tuesday, August 6, 2013

  Actual Average Record
Temperature  
Mean Temperature 88 °F -  
Max Temperature 99 °F 92 °F 110 °F (1956)
Min Temperature 79 °F 70 °F 60 °F (1966)
Cooling Degree Days 24    
Growing Degree Days 38 (Base 50)    
Moisture  
Dew Point 68 °F    
Average Humidity 53    
Maximum Humidity 66    
Minimum Humidity 36    
Precipitation  
Precipitation 0.00 in - - ()
Sea Level Pressure  
Sea Level Pressure 29.83 in    
Wind  
Wind Speed 7 mph (South)    
Max Wind Speed 12 mph    
Max Gust Speed 17 mph    
Visibility 10 miles    
Events      
Averages and records for this station are not official NWS values.
T = Trace of Precipitation, MM = Missing Value Source: NWS Daily Summary

Daily Weather History Graph

Daily Weather History Graph

Search for Another Location

Airport or City:

Trip Planner

Search our weather history database for the weather conditions in past years. The results will help you decide how hot, cold, wet, or windy it might be!

Date:

Astronomy

Aug. 06, 2013 Rise Set
Actual Time 6:36 AM CDT 8:20 PM CDT
Civil Twilight 6:09 AM CDT 8:47 PM CDT
Nautical Twilight 5:36 AM CDT 9:20 PM CDT
Astronomical Twilight 5:01 AM CDT 9:55 PM CDT
Moon 6:26 AM CDT (8/6) 7:59 PM CDT (8/6)
Length of Visible Light 14h 38m
Length of Day
13h 43m
Waning Crescent, 0% of the Moon is Illuminated
Aug 6
Waning Crescent
Aug 6
New
Aug 14
First Quarter
Aug 20
Full
Aug 28
Last Quarter

Hourly Weather History & Observations

Time (CDT) Temp. Heat Index Dew Point Humidity Pressure Visibility Wind Dir Wind Speed Gust Speed Precip Events Conditions
12:53 AM 84.0 °F 85.8 °F 64.9 °F 53% 29.86 in 10.0 mi South 9.2 mph - N/A   Clear
1:53 AM 82.0 °F 83.8 °F 64.9 °F 56% 29.84 in 10.0 mi South 5.8 mph - N/A   Clear
2:53 AM 81.0 °F 82.5 °F 64.0 °F 56% 29.84 in 10.0 mi South 5.8 mph - N/A   Clear
3:53 AM 81.0 °F 82.5 °F 64.0 °F 56% 29.83 in 10.0 mi South 4.6 mph - N/A   Clear
4:53 AM 80.1 °F 81.7 °F 64.0 °F 58% 29.83 in 10.0 mi South 8.1 mph - N/A   Clear
5:53 AM 79.0 °F - 64.0 °F 60% 29.83 in 10.0 mi South 5.8 mph - N/A   Clear
6:53 AM 79.0 °F - 64.9 °F 62% 29.85 in 10.0 mi South 5.8 mph - N/A   Clear
7:53 AM 79.0 °F - 66.9 °F 66% 29.87 in 10.0 mi Calm Calm - N/A   Clear
8:53 AM 82.9 °F 86.5 °F 69.1 °F 63% 29.86 in 10.0 mi SSW 8.1 mph - N/A   Clear
9:53 AM 86.0 °F 90.7 °F 70.0 °F 59% 29.85 in 10.0 mi SSW 11.5 mph - N/A   Clear
10:53 AM 89.1 °F 95.0 °F 71.1 °F 55% 29.86 in 10.0 mi South 9.2 mph - N/A   Clear
11:53 AM 91.0 °F 97.6 °F 71.1 °F 52% 29.86 in 10.0 mi SW 9.2 mph - N/A   Clear
12:53 PM 93.0 °F 99.0 °F 70.0 °F 47% 29.86 in 10.0 mi SSW 8.1 mph 17.3 mph N/A   Clear
1:53 PM 95.0 °F 101.3 °F 70.0 °F 44% 29.84 in 10.0 mi SSW 6.9 mph - N/A   Clear
2:53 PM 97.0 °F 102.8 °F 69.1 °F 40% 29.83 in 10.0 mi South 4.6 mph 17.3 mph N/A   Clear
3:53 PM 98.1 °F 102.4 °F 66.9 °F 36% 29.81 in 10.0 mi Variable 6.9 mph - N/A   Partly Cloudy
4:53 PM 93.9 °F 100.3 °F 70.0 °F 46% 29.80 in 10.0 mi South 4.6 mph - N/A   Scattered Clouds
5:53 PM 96.1 °F 102.9 °F 70.0 °F 43% 29.78 in 10.0 mi SSE 8.1 mph - N/A   Clear
6:53 PM 93.9 °F 99.1 °F 69.1 °F 44% 29.77 in 10.0 mi SSE 4.6 mph - N/A   Clear
7:53 PM 91.9 °F 95.9 °F 68.0 °F 45% 29.77 in 10.0 mi SSE 5.8 mph - N/A   Clear
8:53 PM 87.1 °F 92.0 °F 70.0 °F 57% 29.79 in 10.0 mi SE 5.8 mph - N/A   Clear
9:53 PM 87.1 °F 90.6 °F 68.0 °F 53% 29.81 in 10.0 mi Variable 5.8 mph - N/A   Clear
10:53 PM 86.0 °F 90.1 °F 69.1 °F 57% 29.81 in 10.0 mi SSE 6.9 mph - N/A   Clear
11:53 PM 84.0 °F 87.8 °F 69.1 °F 61% 29.82 in 10.0 mi SSE 6.9 mph - N/A   Clear